www.pogodaiklimat.ru

Погода и климат >> Архив погоды >> Мексика >> Мерида


АРХИВ ПОГОДЫ в Мериде

Время (UTC), дата Ветер
(напр.,м/с)
 
Видим.   Явления Облачность Т
(С)
Тd
(С)
f
(%)
Тe
(С)
Тes
(С)
Комфортность P
(гПа)
Po
(гПа)
Тmin
(С)
Tmax
(С)
R
(мм)
R24
(мм)
S
(см)
06 11.07 Ю 2 5000 м ясно +25.3 +24.7 96 +36 +36 очень
душно
1014.6 1013.4 +35.2
09 11.07 Ю 1 5000 м ясно +24.1 +23.2 95 +32 +32 очень
душно
1013.2 1012.0
12 11.07 ЮВ 1 10 км 8/1 600 м
[Cu hum Ci fib]
+23.6 +22.4 93 +31 +31 очень
душно
1013.4 1012.1 +23.2 +35.2
15 11.07 ЮВ 2 10 км 6/1 600 м
[Cu hum Ci fib]
+30.0 +26.5 82 +46 +56 опасность
перегрева
1014.1 1012.9
18 11.07 СВ 1 10 км 6/4 600 м
[Cu hum Ci fib]
+33.6 +28.4 74 +55 +70 опасность
перегрева
1013.2 1011.9 +23.2 +33.6
21 11.07 С 1 10 км 9/4 600 м
[Cu hum Ac trans Ci fib]
+35.4 +29.6 72 +61 +66 опасность
перегрева
1010.7 1009.4
00 12.07 СВ 2 10 км 10/5 600 м
[Sc As op]
+30.7 +23.7 66 +42 +42 опасность
перегрева
1011.2 1009.9 +23.2 +35.4
03 12.07 СЗ 1 5000 м 5/0 2000 м
[Ac trans]
+29.2 +25.3 80 +43 +43 опасность
перегрева
1012.5 1011.3
06 12.07 ЮВ 2 5000 м {дождь} 4/4 600 м
[Sc diur, vesp]
+27.3 +25.8 92 +41 +41 опасность
перегрева
1013.1 1011.9 2
09 12.07 ЮВ 1 5000 м 1/0
[Ac trans]
+25.6 +24.7 95 +36 +36 очень
душно
1011.1 1009.8
12 12.07 В 2 10 км 9/1 600 м
[Cu hum Ci fib]
+24.9 +23.7 93 +34 +34 очень
душно
1011.2 1009.9 +24.6 +35.4
15 12.07 В 2 10 км 8/4 600 м
[Cu hum Ci fib]
+29.7 +26.9 85 +47 +53 опасность
перегрева
1012.6 1011.3
18 12.07 ЮЗ 2 10 км 10/6 600 м
[Cu hum Ci fib]
+33.0 +27.6 73 +52 +59 опасность
перегрева
1012.4 1011.1 +24.6 +33.0
21 12.07 Ю 3 10 км 6/3 600 м
[Cu hum Ci fib]
+35.8 +28.0 64 +56 +63 опасность
перегрева
1010.3 1009.0
00 13.07 ЮЗ 4 10 км в посл. час морось 9/4 600 м
[Sc Ac trans Ci fib]
+29.6 +23.9 71 +41 +41 опасность
перегрева
1009.9 1008.7 +24.6 +36.0 0.1
03 13.07 ЮВ 3 5000 м 3/0
[Ci fib]
+29.8 +22.9 67 +40 +40 очень
душно
1011.3 1010.1
06 13.07 В 2 5000 м 3/0
[Ci fib]
+27.4 +25.0 87 +39 +39 очень
душно
1012.5 1011.3 +36.0
09 13.07 ЮВ 2 5000 м 1/0
[Ci fib]
+25.8 +24.2 91 +36 +36 очень
душно
1011.9 1010.6
12 13.07 ЮВ 2 10 км 8/4 600 м
[Sc Ac trans]
+24.8 +23.9 95 +34 +34 очень
душно
1012.9 1011.6 +24.6 +36.0
15 13.07 ЮВ 4 10 км 10/9 600 м
[Sc Ac trans]
+28.8 +26.3 86 +44 +44 опасность
перегрева
1014.3 1013.1
18 13.07 В 5 10 км 9/4 600 м
[Cu hum Ci fib]
+34.0 +25.1 60 +48 +54 опасность
перегрева
1013.1 1011.8 +24.6 +34.0
21 13.07 ЮВ 4 10 км 9/5 600 м
[Cu hum Ci fib]
+34.8 +27.2 65 +53 +57 опасность
перегрева
1011.9 1010.6
00 14.07 В 4 10 км 9/4 600 м
[Cu Sc As op]
+32.1 +25.0 66 +46 +46 опасность
перегрева
1011.4 1010.1 +24.6 +35.3
03 14.07 ЮВ 2 5000 м 6/0
[Ci fib]
+29.6 +26.0 81 +44 +44 опасность
перегрева
1012.9 1011.7
06 14.07 В 3 5000 м 4/0
[Ci fib]
+27.6 +23.9 80 +38 +38 очень
душно
1014.0 1012.7 +35.3
09 14.07 В 3 5000 м 1/0
[Ci fib]
+25.8 +23.8 89 +35 +35 очень
душно
1013.8 1012.5
12 14.07 В 3 10 км 5/1 600 м
[Cu hum Ci fib]
+25.2 +23.8 92 +34 +35 очень
душно
1014.2 1013.0 +24.9 +35.3
15 14.07 ЮВ 6 10 км 8/4 600 м
[Cu hum Ci fib]
+30.2 +25.9 78 +45 +48 опасность
перегрева
1015.7 1014.5
18 14.07 В 3 10 км 9/5 600 м
[Cu hum Ci fib]
+34.3 +26.2 63 +51 +58 опасность
перегрева
1014.4 1013.1 +24.9 +34.3
21 14.07 В 3 10 км 8/4 600 м
[Cu hum Ci fib]
+36.9 +29.6 66 +62 +67 опасность
перегрева
1012.1 1010.9
00 15.07 СВ 3 10 км 9/6 600 м
[Cu med, cong Ci fib]
+23.0 +24.6 100 +32 +32 очень
душно
1012.0 1010.8 +24.9 +37.3
03 15.07 ЮВ 3 5000 м 1/0
[Ci fib]
+30.6 +24.1 68 +42 +42 опасность
перегрева
1014.1 1012.8
06 15.07 ЮВ 3 5000 м ясно +28.7 +25.0 80 +41 +41 опасность
перегрева
1015.0 1013.8 +24.9 +37.3
09 15.07 ЮВ 2 5000 м ясно +26.3 +25.0 93 +38 +38 очень
душно
1013.7 1012.4
12 15.07 ЮВ 2 10 км 1/0
[Ci fib]
+25.6 +24.5 94 +36 +36 очень
душно
1014.9 1013.7 +25.3 +37.3
15 15.07 ЮВ 3 10 км 3/1 600 м
[Cu hum Ci fib]
+31.2 +26.9 78 +49 +58 опасность
перегрева
1015.8 1014.5
18 15.07 В 5 10 км 6/6 600 м
[Cu hum]
+34.2 +25.3 60 +48 +53 опасность
перегрева
1014.7 1013.5 +25.3 +34.2
21 15.07 СВ 6 10 км 8/6 600 м
[Cu hum Ac trans]
+34.6 +24.7 57 +48 +49 опасность
перегрева
1012.8 1011.6
00 16.07 В 4 10 км {морось} 9/4 600 м
[Cu hum Ci fib]
+31.4 +25.3 70 +45 +46 опасность
перегрева
1012.9 1011.6 +25.3 +35.8 5
03 16.07 В 3 5000 м 5/5 600 м
[Sc]
+25.8 +25.1 96 +37 +37 очень
душно
1014.9 1013.6
06 16.07 В 3 5000 м 1/0
[]
+26.8 +25.0 90 +39 +39 очень
душно
1015.6 1014.3 +35.8
09 16.07 ЮВ 3 5000 м 1/0
[Ci fib]
+25.5 +23.9 91 +35 +35 очень
душно
1014.6 1013.3
12 16.07 ЮВ 2 10 км 3/0 2000 м
[Ac cast Ci fib]
+25.2 +23.8 92 +34 +35 очень
душно
1015.7 1014.4 +24.7 +35.8
15 16.07 В 4 10 км 5/3 600 м
[Cu hum Ac trans Ci fib]
+30.4 +26.0 77 +45 +50 опасность
перегрева
1016.7 1015.4
18 16.07 СВ 3 10 км 8/5 600 м
[Cu hum Ac trans Ci fib]
+34.2 +26.5 64 +51 +57 опасность
перегрева
1016.4 1015.1 +24.7 +34.2
21 16.07 В 9 10 км 9/6 600 м
[Sc Ac trans Ci fib]
+29.3 +22.8 68 +39 +39 очень
душно
1015.9 1014.6
00 17.07 С 1 10 км {морось} 9/3 600 м
[Sc As op]
+26.0 +24.3 90 +36 +36 очень
душно
1015.6 1014.4 +23.7 +36.3 1
03 17.07 В 2 5000 м 6/0
[Ci fib]
+26.5 +24.4 88 +37 +37 очень
душно
1016.4 1015.1
06 17.07 В 2 5000 м 1/0
[Ac trans]
+26.0 +25.0 94 +37 +37 очень
душно
1017.2 1015.9 +35.3
09 17.07 В 2 5000 м 4/0
[Cs]
+25.1 +24.1 94 +35 +35 очень
душно
1015.9 1014.6
12 17.07 ЮВ 1 10 км 9/0 2000 м
[Ac trans Cs]
+25.1 +23.8 93 +34 +35 очень
душно
1016.6 1015.3 +24.8 +35.3
15 17.07 ЮВ 2 10 км 10/1 600 м
[Cu hum Cs]
+29.6 +26.6 84 +46 +55 опасность
перегрева
1017.8 1016.6
18 17.07 В 2 10 км 9/5 600 м
[Cu hum Ac trans Cs]
+32.4 +26.2 70 +49 +55 опасность
перегрева
1017.2 1016.0 +24.8 +32.4
21 17.07 СВ 3 10 км 8/5 600 м
[Cu hum Ac trans Ci fib]
+33.8 +23.7 56 +45 +49 опасность
перегрева
1014.8 1013.6
00 18.07 С 2 10 км {дождь} 9/8 600 м
[Sc Ac trans]
+25.6 +23.9 90 +35 +35 очень
душно
1015.7 1014.4 +24.2 +34.6 3
03 18.07 В 2 5000 м {морось} 5/5 600 м
[Sc]
+25.8 +24.7 94 +37 +37 очень
душно
1015.9 1014.6 0.0

 

Местоположение метеостанции Мерида (Мексика): широта 20.98 долгота -89.65 высота над уровнем моря 9 м.

В архиве по умолчанию представлена погода в Мериде за последнюю неделю. Архивные данные за месяц целиком и за предыдущие месяцы, начиная с января 2011 года, Вы можете получить, выбрав интересующий диапазон дат из раскрывающегося списка и нажав кнопку "Ввод!".


*Определитесь, кто Вы:
робот инопланетянин человек

Внимание! Время в таблицах - всемирное. Для получения местного времени необходимо прибавить поправку, которая равна -6 ч.

Смотрите также архив погоды в соседних городах и на ближайших метеорологических станциях:

Погода в Мериде 2 (Мексика) (6 км)
Погода в Прогресо (Мексика) (36 км)
Погода в Вальядолиде (Мексика) (154 км)
Погода в Кампече (Мексика) (157 км)
Погода в Фелипе-Каррильо-Пуэрто (Мексика) (231 км)
Погода в Четумале (Мексика) (312 км)
Погода в Белизе (Белиз) (409 км)
Погода во Флоресе (Гватемала) (452 км)
Погода в Вильяэрмосе (Мексика) (479 км)
Погода в Кабо-Сан-Антонио (Куба) (497 км)

Пояснения к столбцам:

Ветер - указаны скорость ветра в м/с - средняя за 10 мин, порывы в срок и между сроками (в фигурных скобках) и направление, откуда дует ветер: С - северный, СВ - северо-восточный, В - восточный, ЮВ - юго-восточный, Ю - южный, ЮЗ - юго-западный, З - западный, СЗ - северо-западный.
Видимость - горизонтальная дальность видимости в метрах или километрах. При видимости от 1 до 10 км при отсутствии осадков обычно наблюдается дымка, при ухудшении видимости до 1 км и менее - туман. В сухую погоду видимость может ухудшаться дымом, пылью или мглою.
Явления - указаны атмосферные явления, наблюдавшиеся в срок или в последний час перед сроком; фигурными скобками обозначены явления, наблюдавшиеся между сроками (за 1-3 часа до срока); квадратными скобками обозначены град или гололедные отложения с указанием их диаметра в мм.
Облачность - указаны через наклонную черту общая и нижняя облачность в баллах и высота нижней границы облаков в метрах; квадратными скобками обозначены формы облаков: Ci - перистые, Cs - перисто-слоистые, Cc - перисто-кучевые, Ac - высококучевые, As - высокослоистые, Sc - слоисто-кучевые, Ns - слоисто-дождевые, Cu - кучевые, Cb - кучево-дождевые. Подробнее классификацию облаков см. в Атласе облаков (PDF).
T - Температура воздуха - температура, измеренная на высоте 2 м над землей.
Td - Температура точки росы - температура, при понижении до которой содержащийся в воздухе водяной пар достигнет насыщения.
f - Относительная влажность воздуха - влажноcть воздуха, измеренная на высоте 2 м над землей.
Te - Эффективная температура - температура, которую ощущает одетый по сезону человек в тени. Характеристика душности погоды. При расчете учитывается влияние влажности воздуха и скорости ветра на теплоощущения человека.
Tes - Эффективная температура на солнце - температура, которую ощущает человек, с поправкой на солнечный нагрев. Характеристика знойности погоды. Зависит от высоты солнца над горизонтом, облачности и скорости ветра. Ночью, в пасмурную погоду, а также при ветре 12 м/с и более поправка равна нулю.
P - Атмосферное давление - приведенное к уровню моря атмосферное давление.
Po - Атмосферное давление - измеренное на уровне метеостанции атмосферное давление.
Tmin - Минимальная температура - минимум температуры воздуха на высоте 2 м над землей.
Tmax - Максимальная температура - максимум температуры воздуха на высоте 2 м над землей.
R - Количество осадков - Количество выпавших осадков за период времени, мм. При наведении курсора мыши на число - период времени, за который выпало указанное количество осадков.
R24 - Количество осадков - Количество выпавших осадков за 24 часа, мм.
S - Снежный покров - Высота снежного покрова, см. При наведении курсора мыши на число - состояние снежного покрова и степень покрытия местности в баллах.